Regional Weather Roundup
Issued by NWS Goodland, KS

Home | Current Version | Previous Version | Graphics & Text | Print | Product List | Glossary On
Versions: 1 2 3 4 5 6 7 8 9 10 11 12 13 14 15 16 17 18 19 20 21 22 23 24 25 26 27 28 29 30 31 32 33 34 35 36 37 38 39 40 41 42 43 44 45 46 47 48 49 50
000
ASUS43 KGLD 070908
RWRGLD

GOODLAND FORECAST AREA HOURLY WEATHER ROUNDUP
NATIONAL WEATHER SERVICE GOODLAND KS
300 AM MDT TUE JUL 07 2015

...OFFICIAL OBSERVATIONS...

CITY           SKY/WX    TMP DP  RH WIND       PRES   REMARKS
GOODLAND KS    MOCLDY    56  52  86 E3        30.22S
HILL CITY KS   PTCLDY    59  54  83 N9        30.15F HAZE
IMPERIAL NEB   CLOUDY    60  53  77 E7        30.21F
MCCOOK NEB     MOCLDY    59  54  83 N5        30.19F HAZE
AKRON CO       MOCLDY    58  51  78 SE12      30.25F HAZE
BURLINGTON CO  CLOUDY    59  52  77 E5        30.24F
LIMON CO       CLOUDY    54  51  90 SE5       30.28F FOG
$$

...UNOFFICIAL OBSERVATIONS...

CITY           SKY/WX    TMP DP  RH WIND       PRES   REMARKS
COLBY KS       CLEAR     59  54  82 N7        30.21S
GOVE KS          N/A     60  32  34 MISG        N/A
NORTON KS      CLEAR     55  48  76 N6        30.16
SHARON SPRINGS   N/A     62  54  74 NE6         N/A
KIT CARSON CO    N/A     60  51  73 MISG        N/A
$$


USA.gov is the U.S. government's official web portal to all federal, state and local government web resources and services.